QPF
0.06 0.05 0.05 0.04 0.04 0.02 0.02 0.02 0.02 0.02 0.03 0.04 0.04 0.02 0.02 0.02 0.02 0.02 0.02 0.01 0.02 0.02 0.03 0.03 0.03 0.03 0.03 0.03 0.02 0.02 0.01 0.01 0.01 0.01 0.01 0.01 0.01 0.01 0.01 0.01 0.01 0.01 0.01
0.06 0.05 0.06 0.06 0.07 0.04 0.02 0.02 0.02 0.03 0.04 0.04 0.05 0.03 0.02 0.02 0.03 0.04 0.03 0.02 0.01 0.01 0.02 0.04 0.04 0.04 0.03 0.04 0.03 0.02 0.02 0.01 0.01 0.01 0.01 0.00 0.00 0.01 0.01 0.01 0.01 0.01 0.00
0.04 0.04 0.06 0.08 0.10 0.08 0.04 0.03 0.03 0.05 0.05 0.05 0.05 0.06 0.04 0.02 0.02 0.03 0.03 0.02 0.01 0.01 0.01 0.02 0.04 0.05 0.05 0.04 0.04 0.03 0.03 0.02 0.01 0.01 0.01 0.00 0.00 0.00 0.00 0.00 0.00 0.00 0.00
0.05 0.04 0.04 0.07 0.11 0.09 0.06 0.03 0.03 0.04 0.06 0.05 0.05 0.05 0.04 0.03 0.03 0.03 0.02 0.01 0.01 0.00 0.01 0.01 0.02 0.05 0.07 0.06 0.05 0.04 0.04 0.03 0.02 0.01 0.01 0.00 0.00 0.00 0.00 0.00 0.00 0.00 0.00
0.05 0.04 0.04 0.05 0.08 0.08 0.06 0.04 0.04 0.04 0.05 0.05 0.06 0.06 0.04 0.03 0.03 0.04 0.03 0.02 0.01 0.00 0.00 0.00 0.01 0.02 0.05 0.10 0.09 0.07 0.05 0.03 0.02 0.01 0.01 0.01 0.00 0.00 0.00 0.00 0.00 0.00 0.00
0.05 0.04 0.03 0.04 0.05 0.06 0.05 0.04 0.03 0.04 0.04 0.05 0.06 0.07 0.07 0.05 0.04 0.03 0.04 0.03 0.02 0.01 0.01 0.01 0.01 0.02 0.02 0.06 0.13 0.14 0.08 0.04 0.02 0.02 0.01 0.01 0.01 0.01 0.01 0.01 0.01 0.00 0.00
0.05 0.04 0.04 0.03 0.04 0.05 0.04 0.03 0.03 0.04 0.04 0.05 0.07 0.08 0.08 0.07 0.05 0.04 0.03 0.04 0.04 0.04 0.03 0.02 0.03 0.02 0.02 0.03 0.09 0.13 0.09 0.06 0.04 0.02 0.02 0.01 0.01 0.01 0.01 0.01 0.01 0.01 0.01
0.03 0.02 0.02 0.02 0.02 0.04 0.04 0.03 0.03 0.04 0.05 0.04 0.04 0.05 0.06 0.07 0.05 0.03 0.03 0.03 0.04 0.04 0.04 0.03 0.03 0.03 0.03 0.04 0.06 0.07 0.07 0.08 0.07 0.05 0.03 0.02 0.02 0.01 0.01 0.01 0.01 0.01 0.01
0.01 0.01 0.01 0.01 0.01 0.02 0.03 0.03 0.02 0.03 0.04 0.03 0.03 0.03 0.04 0.04 0.03 0.02 0.02 0.02 0.03 0.04 0.04 0.04 0.04 0.03 0.03 0.04 0.06 0.07 0.07 0.08 0.09 0.09 0.07 0.04 0.03 0.02 0.01 0.01 0.01 0.01 0.01
0.01 0.01 0.01 0.01 0.01 0.01 0.01 0.02 0.02 0.03 0.03 0.03 0.03 0.03 0.03 0.03 0.02 0.02 0.03 0.03 0.03 0.04 0.05 0.04 0.05 0.04 0.04 0.05 0.07 0.08 0.07 0.07 0.08 0.10 0.10 0.08 0.06 0.04 0.02 0.02 0.01 0.01 0.01
0.01 0.01 0.01 0.01 0.01 0.01 0.01 0.02 0.02 0.02 0.03 0.03 0.03 0.03 0.03 0.03 0.03 0.03 0.03 0.04 0.04 0.03 0.03 0.02 0.03 0.05 0.05 0.05 0.06 0.07 0.08 0.08 0.08 0.10 0.12 0.11 0.09 0.07 0.04 0.03 0.02 0.01 0.01
0.01 0.01 0.02 0.02 0.02 0.02 0.02 0.03 0.03 0.04 0.04 0.04 0.03 0.02 0.02 0.03 0.03 0.03 0.04 0.06 0.06 0.05 0.04 0.03 0.02 0.03 0.04 0.05 0.05 0.07 0.07 0.07 0.07 0.08 0.10 0.11 0.10 0.08 0.06 0.04 0.03 0.03 0.02
0.01 0.01 0.01 0.02 0.02 0.02 0.02 0.02 0.03 0.04 0.05 0.05 0.04 0.03 0.02 0.02 0.02 0.02 0.03 0.04 0.05 0.06 0.05 0.03 0.02 0.02 0.03 0.04 0.05 0.05 0.05 0.06 0.07 0.07 0.09 0.10 0.09 0.07 0.06 0.04 0.04 0.04 0.04
0.01 0.01 0.01 0.02 0.02 0.02 0.01 0.01 0.02 0.02 0.02 0.03 0.03 0.03 0.03 0.03 0.03 0.03 0.03 0.03 0.04 0.04 0.04 0.03 0.02 0.02 0.02 0.03 0.04 0.05 0.05 0.06 0.07 0.08 0.08 0.08 0.07 0.05 0.04 0.03 0.03 0.04 0.04
0.01 0.01 0.01 0.01 0.02 0.02 0.01 0.01 0.01 0.01 0.01 0.02 0.03 0.03 0.02 0.02 0.03 0.03 0.03 0.03 0.04 0.05 0.06 0.03 0.02 0.01 0.01 0.02 0.04 0.05 0.05 0.06 0.06 0.06 0.06 0.06 0.07 0.05 0.04 0.03 0.03 0.03 0.02
0.01 0.01 0.01 0.02 0.02 0.02 0.02 0.02 0.01 0.01 0.01 0.01 0.02 0.03 0.02 0.02 0.02 0.02 0.03 0.02 0.03 0.03 0.03 0.02 0.02 0.02 0.02 0.02 0.05 0.05 0.05 0.06 0.05 0.05 0.05 0.05 0.05 0.06 0.04 0.03 0.03 0.02 0.02
0.01 0.01 0.01 0.01 0.01 0.02 0.02 0.02 0.02 0.01 0.01 0.01 0.02 0.02 0.02 0.02 0.02 0.02 0.02 0.02 0.03 0.03 0.03 0.03 0.02 0.03 0.03 0.04 0.04 0.04 0.04 0.05 0.05 0.05 0.04 0.05 0.05 0.07 0.06 0.03 0.03 0.02 0.02
0.01 0.01 0.01 0.01 0.01 0.01 0.02 0.02 0.02 0.01 0.01 0.01 0.01 0.02 0.02 0.02 0.02 0.03 0.03 0.03 0.03 0.04 0.05 0.04 0.03 0.02 0.03 0.03 0.04 0.03 0.03 0.04 0.03 0.04 0.04 0.03 0.05 0.07 0.07 0.05 0.03 0.02 0.02
0.01 0.01 0.01 0.01 0.01 0.01 0.01 0.01 0.01 0.01 0.01 0.01 0.01 0.01 0.02 0.03 0.03 0.03 0.03 0.04 0.04 0.04 0.04 0.04 0.03 0.02 0.02 0.03 0.03 0.03 0.02 0.03 0.03 0.02 0.02 0.03 0.03 0.05 0.06 0.06 0.06 0.04 0.02
0.01 0.01 0.01 0.01 0.01 0.01 0.01 0.01 0.01 0.01 0.01 0.01 0.01 0.01 0.02 0.02 0.02 0.02 0.03 0.03 0.03 0.04 0.04 0.04 0.03 0.03 0.02 0.02 0.02 0.02 0.01 0.02 0.02 0.02 0.02 0.02 0.03 0.04 0.05 0.05 0.06 0.06 0.04
0.01 0.01 0.01 0.01 0.01 0.01 0.01 0.01 0.01 0.01 0.01 0.01 0.01 0.01 0.01 0.02 0.02 0.02 0.02 0.03 0.03 0.03 0.04 0.04 0.04 0.03 0.03 0.02 0.02 0.01 0.01 0.01 0.01 0.01 0.02 0.02 0.02 0.02 0.03 0.04 0.05 0.06 0.06
0.02 0.01 0.01 0.01 0.01 0.01 0.02 0.02 0.01 0.01 0.01 0.01 0.01 0.01 0.01 0.01 0.01 0.02 0.02 0.02 0.03 0.03 0.03 0.03 0.03 0.03 0.03 0.03 0.03 0.02 0.02 0.02 0.02 0.01 0.01 0.01 0.01 0.01 0.02 0.03 0.05 0.06 0.06
0.02 0.02 0.02 0.02 0.02 0.02 0.02 0.02 0.02 0.02 0.02 0.01 0.01 0.01 0.01 0.01 0.02 0.01 0.02 0.02 0.02 0.03 0.03 0.02 0.03 0.03 0.03 0.03 0.03 0.03 0.03 0.02 0.02 0.01 0.01 0.01 0.01 0.01 0.01 0.02 0.04 0.05 0.06
0.02 0.02 0.02 0.02 0.02 0.02 0.03 0.03 0.03 0.02 0.02 0.02 0.02 0.02 0.01 0.01 0.02 0.02 0.02 0.02 0.02 0.02 0.02 0.02 0.02 0.02 0.02 0.02 0.04 0.04 0.03 0.03 0.03 0.02 0.01 0.01 0.02 0.02 0.02 0.02 0.04 0.04 0.05
0.03 0.02 0.02 0.01 0.01 0.01 0.01 0.02 0.02 0.02 0.02 0.02 0.02 0.01 0.01 0.01 0.02 0.02 0.01 0.01 0.01 0.01 0.02 0.02 0.02 0.02 0.02 0.02 0.03 0.05 0.04 0.04 0.04 0.03 0.02 0.01 0.02 0.02 0.02 0.03 0.04 0.04 0.04
0.03 0.03 0.02 0.01 0.01 0.01 0.01 0.01 0.01 0.01 0.01 0.01 0.01 0.01 0.01 0.01 0.01 0.01 0.01 0.01 0.01 0.01 0.01 0.01 0.01 0.01 0.01 0.01 0.02 0.04 0.05 0.04 0.04 0.04 0.03 0.02 0.02 0.02 0.03 0.04 0.04 0.04 0.04
MSLP
1017.30 1017.47 1017.57 1017.63 1017.68 1017.75 1017.87 1018.04 1018.26 1018.49 1018.72 1018.90 1019.03 1019.10 1019.12 1019.13 1019.16 1019.22 1019.33 1019.50 1019.70 1019.93 1020.16 1020.40 1020.64 1020.89 1021.16 1021.48 1021.83 1022.22 1022.63 1023.03 1023.40 1023.73 1024.01 1024.25 1024.44 1024.62 1024.79 1024.95 1025.12 1025.27 1025.39
1017.28 1017.45 1017.53 1017.58 1017.62 1017.68 1017.80 1017.98 1018.22 1018.48 1018.75 1018.98 1019.16 1019.28 1019.36 1019.41 1019.45 1019.51 1019.59 1019.70 1019.83 1019.99 1020.15 1020.33 1020.53 1020.77 1021.05 1021.39 1021.79 1022.23 1022.68 1023.13 1023.54 1023.90 1024.20 1024.44 1024.64 1024.82 1024.99 1025.16 1025.34 1025.51 1025.66
1017.27 1017.43 1017.53 1017.58 1017.63 1017.71 1017.84 1018.04 1018.29 1018.57 1018.86 1019.13 1019.35 1019.52 1019.64 1019.72 1019.78 1019.83 1019.88 1019.93 1020.00 1020.06 1020.15 1020.25 1020.40 1020.61 1020.89 1021.24 1021.67 1022.15 1022.65 1023.15 1023.60 1024.00 1024.32 1024.58 1024.80 1024.98 1025.15 1025.33 1025.51 1025.70 1025.87
1017.27 1017.44 1017.56 1017.63 1017.71 1017.81 1017.96 1018.17 1018.43 1018.72 1019.02 1019.31 1019.55 1019.75 1019.90 1020.01 1020.08 1020.13 1020.15 1020.16 1020.16 1020.16 1020.16 1020.20 1020.29 1020.45 1020.71 1021.06 1021.50 1022.01 1022.55 1023.09 1023.59 1024.02 1024.37 1024.66 1024.89 1025.09 1025.27 1025.45 1025.64 1025.84 1026.03
1017.29 1017.47 1017.61 1017.72 1017.83 1017.97 1018.14 1018.36 1018.61 1018.89 1019.18 1019.45 1019.69 1019.90 1020.07 1020.20 1020.29 1020.35 1020.37 1020.36 1020.32 1020.26 1020.21 1020.18 1020.21 1020.33 1020.55 1020.89 1021.33 1021.85 1022.41 1022.97 1023.50 1023.97 1024.36 1024.67 1024.93 1025.15 1025.34 1025.54 1025.74 1025.94 1026.14
1017.31 1017.50 1017.67 1017.82 1017.96 1018.13 1018.32 1018.53 1018.77 1019.02 1019.27 1019.51 1019.73 1019.93 1020.11 1020.26 1020.38 1020.46 1020.50 1020.50 1020.45 1020.37 1020.29 1020.22 1020.20 1020.28 1020.46 1020.76 1021.18 1021.68 1022.24 1022.81 1023.36 1023.85 1024.28 1024.63 1024.92 1025.17 1025.39 1025.61 1025.82 1026.03 1026.24
1017.32 1017.52 1017.70 1017.89 1018.07 1018.26 1018.46 1018.66 1018.87 1019.08 1019.27 1019.46 1019.65 1019.83 1020.00 1020.17 1020.33 1020.45 1020.54 1020.57 1020.55 1020.49 1020.40 1020.32 1020.28 1020.31 1020.45 1020.71 1021.08 1021.54 1022.08 1022.63 1023.18 1023.69 1024.14 1024.53 1024.87 1025.17 1025.43 1025.68 1025.92 1026.15 1026.38
1017.31 1017.50 1017.70 1017.91 1018.13 1018.33 1018.54 1018.73 1018.90 1019.05 1019.19 1019.32 1019.46 1019.61 1019.79 1019.97 1020.16 1020.34 1020.49 1020.59 1020.62 1020.60 1020.54 1020.47 1020.42 1020.43 1020.53 1020.73 1021.04 1021.45 1021.93 1022.45 1022.98 1023.49 1023.97 1024.40 1024.79 1025.15 1025.48 1025.78 1026.06 1026.32 1026.56
1017.28 1017.46 1017.66 1017.89 1018.12 1018.34 1018.54 1018.71 1018.85 1018.95 1019.03 1019.11 1019.21 1019.33 1019.50 1019.70 1019.93 1020.17 1020.38 1020.55 1020.66 1020.70 1020.69 1020.65 1020.61 1020.61 1020.67 1020.82 1021.06 1021.40 1021.81 1022.28 1022.78 1023.28 1023.77 1024.25 1024.70 1025.12 1025.53 1025.90 1026.24 1026.55 1026.81
1017.23 1017.39 1017.58 1017.81 1018.05 1018.27 1018.47 1018.62 1018.73 1018.80 1018.84 1018.88 1018.94 1019.04 1019.21 1019.42 1019.68 1019.96 1020.24 1020.47 1020.65 1020.77 1020.82 1020.82 1020.81 1020.80 1020.84 1020.94 1021.13 1021.39 1021.73 1022.13 1022.58 1023.06 1023.56 1024.07 1024.58 1025.09 1025.57 1026.02 1026.44 1026.79 1027.09
1017.17 1017.30 1017.48 1017.69 1017.92 1018.15 1018.34 1018.48 1018.57 1018.62 1018.64 1018.65 1018.69 1018.78 1018.94 1019.16 1019.44 1019.75 1020.07 1020.36 1020.60 1020.77 1020.88 1020.94 1020.96 1020.97 1021.01 1021.08 1021.21 1021.41 1021.68 1022.02 1022.41 1022.87 1023.36 1023.90 1024.45 1025.02 1025.59 1026.12 1026.60 1027.02 1027.35
1017.11 1017.20 1017.34 1017.54 1017.75 1017.96 1018.14 1018.28 1018.37 1018.41 1018.43 1018.44 1018.48 1018.56 1018.71 1018.93 1019.21 1019.53 1019.87 1020.19 1020.47 1020.70 1020.86 1020.97 1021.04 1021.09 1021.14 1021.20 1021.31 1021.46 1021.67 1021.95 1022.29 1022.71 1023.19 1023.73 1024.32 1024.93 1025.55 1026.15 1026.69 1027.16 1027.53
1017.05 1017.09 1017.19 1017.34 1017.52 1017.71 1017.88 1018.02 1018.11 1018.17 1018.20 1018.22 1018.27 1018.36 1018.51 1018.72 1018.99 1019.30 1019.63 1019.96 1020.26 1020.53 1020.74 1020.91 1021.04 1021.14 1021.22 1021.30 1021.41 1021.54 1021.71 1021.94 1022.24 1022.61 1023.06 1023.59 1024.18 1024.81 1025.46 1026.10 1026.68 1027.18 1027.58
1016.99 1016.96 1017.00 1017.10 1017.24 1017.40 1017.55 1017.68 1017.79 1017.86 1017.92 1017.97 1018.04 1018.14 1018.29 1018.49 1018.74 1019.03 1019.35 1019.66 1019.97 1020.26 1020.52 1020.74 1020.94 1021.10 1021.25 1021.38 1021.51 1021.65 1021.81 1022.02 1022.28 1022.61 1023.02 1023.51 1024.07 1024.69 1025.33 1025.97 1026.56 1027.08 1027.49
1016.93 1016.83 1016.80 1016.83 1016.91 1017.02 1017.14 1017.27 1017.38 1017.47 1017.56 1017.65 1017.74 1017.87 1018.02 1018.21 1018.44 1018.70 1018.99 1019.29 1019.60 1019.91 1020.21 1020.49 1020.76 1021.00 1021.23 1021.43 1021.62 1021.79 1021.97 1022.17 1022.40 1022.69 1023.06 1023.50 1024.01 1024.58 1025.18 1025.79 1026.36 1026.86 1027.27
1016.85 1016.68 1016.57 1016.52 1016.53 1016.59 1016.67 1016.77 1016.88 1016.99 1017.10 1017.22 1017.34 1017.48 1017.65 1017.84 1018.05 1018.29 1018.56 1018.85 1019.16 1019.48 1019.82 1020.17 1020.51 1020.85 1021.16 1021.45 1021.71 1021.95 1022.16 1022.38 1022.60 1022.87 1023.19 1023.57 1024.01 1024.51 1025.05 1025.59 1026.11 1026.58 1026.97
1016.78 1016.53 1016.34 1016.21 1016.14 1016.12 1016.15 1016.21 1016.30 1016.41 1016.53 1016.67 1016.82 1016.98 1017.16 1017.35 1017.56 1017.79 1018.05 1018.33 1018.65 1019.00 1019.38 1019.79 1020.21 1020.63 1021.04 1021.42 1021.76 1022.07 1022.34 1022.59 1022.84 1023.09 1023.38 1023.71 1024.09 1024.51 1024.96 1025.42 1025.87 1026.28 1026.64
1016.72 1016.40 1016.13 1015.92 1015.76 1015.67 1015.62 1015.63 1015.68 1015.76 1015.88 1016.02 1016.18 1016.35 1016.54 1016.75 1016.96 1017.20 1017.46 1017.76 1018.10 1018.47 1018.90 1019.36 1019.84 1020.34 1020.83 1021.29 1021.72 1022.11 1022.45 1022.76 1023.03 1023.30 1023.58 1023.88 1024.20 1024.55 1024.92 1025.30 1025.67 1026.02 1026.33
1016.68 1016.30 1015.96 1015.67 1015.43 1015.25 1015.12 1015.06 1015.05 1015.09 1015.17 1015.30 1015.45 1015.63 1015.83 1016.05 1016.28 1016.53 1016.81 1017.13 1017.49 1017.90 1018.36 1018.86 1019.39 1019.95 1020.50 1021.04 1021.54 1022.00 1022.41 1022.79 1023.12 1023.43 1023.72 1024.01 1024.31 1024.61 1024.92 1025.23 1025.52 1025.80 1026.06
1016.69 1016.26 1015.85 1015.49 1015.16 1014.89 1014.68 1014.53 1014.45 1014.42 1014.46 1014.54 1014.68 1014.85 1015.05 1015.27 1015.52 1015.80 1016.10 1016.44 1016.83 1017.26 1017.74 1018.27 1018.83 1019.42 1020.01 1020.60 1021.16 1021.68 1022.17 1022.61 1023.02 1023.38 1023.72 1024.04 1024.34 1024.63 1024.90 1025.16 1025.40 1025.63 1025.84
1016.74 1016.26 1015.81 1015.38 1014.98 1014.62 1014.32 1014.08 1013.91 1013.81 1013.77 1013.81 1013.90 1014.04 1014.22 1014.45 1014.71 1015.00 1015.33 1015.69 1016.10 1016.55 1017.04 1017.57 1018.14 1018.74 1019.34 1019.95 1020.55 1021.13 1021.68 1022.20 1022.68 1023.13 1023.54 1023.91 1024.25 1024.55 1024.82 1025.05 1025.26 1025.45 1025.62
1016.82 1016.32 1015.82 1015.33 1014.87 1014.44 1014.06 1013.73 1013.46 1013.27 1013.16 1013.12 1013.15 1013.25 1013.41 1013.61 1013.87 1014.17 1014.51 1014.88 1015.29 1015.74 1016.23 1016.75 1017.31 1017.89 1018.49 1019.11 1019.73 1020.34 1020.96 1021.55 1022.11 1022.65 1023.15 1023.60 1023.99 1024.34 1024.62 1024.86 1025.06 1025.23 1025.38
1016.93 1016.40 1015.87 1015.34 1014.82 1014.33 1013.87 1013.46 1013.12 1012.84 1012.64 1012.52 1012.48 1012.52 1012.63 1012.80 1013.03 1013.31 1013.64 1014.01 1014.41 1014.85 1015.32 1015.82 1016.34 1016.90 1017.49 1018.10 1018.73 1019.38 1020.03 1020.70 1021.35 1021.97 1022.56 1023.10 1023.57 1023.97 1024.30 1024.56 1024.77 1024.93 1025.08
1017.02 1016.48 1015.93 1015.37 1014.82 1014.28 1013.77 1013.30 1012.88 1012.52 1012.24 1012.04 1011.92 1011.88 1011.92 1012.04 1012.22 1012.46 1012.76 1013.09 1013.47 1013.88 1014.32 1014.78 1015.28 1015.81 1016.38 1016.98 1017.62 1018.30 1019.00 1019.73 1020.45 1021.16 1021.84 1022.45 1023.00 1023.47 1023.85 1024.15 1024.38 1024.56 1024.71
1017.09 1016.54 1015.98 1015.41 1014.84 1014.28 1013.73 1013.21 1012.74 1012.32 1011.96 1011.68 1011.48 1011.36 1011.32 1011.36 1011.47 1011.64 1011.88 1012.16 1012.49 1012.86 1013.26 1013.70 1014.17 1014.69 1015.25 1015.85 1016.51 1017.21 1017.96 1018.74 1019.53 1020.31 1021.05 1021.74 1022.35 1022.88 1023.31 1023.65 1023.92 1024.13 1024.30
1017.12 1016.57 1016.01 1015.44 1014.86 1014.29 1013.73 1013.18 1012.68 1012.21 1011.80 1011.45 1011.17 1010.96 1010.83 1010.77 1010.79 1010.88 1011.03 1011.25 1011.52 1011.84 1012.20 1012.61 1013.07 1013.59 1014.15 1014.78 1015.46 1016.20 1016.99 1017.81 1018.66 1019.49 1020.29 1021.03 1021.69 1022.26 1022.74 1023.12 1023.42 1023.66 1023.86
Thickness
5645 5646 5648 5649 5649 5650 5651 5652 5653 5655 5657 5658 5659 5660 5661 5661 5662 5662 5663 5663 5664 5664 5663 5663 5663 5662 5661 5660 5659 5657 5656 5655 5654 5652 5651 5650 5648 5647 5646 5644 5643 5643 5642
5638 5639 5641 5642 5643 5644 5645 5646 5647 5649 5650 5651 5652 5653 5654 5654 5655 5655 5656 5656 5656 5657 5657 5657 5657 5656 5655 5654 5653 5652 5650 5649 5648 5646 5645 5643 5642 5641 5639 5638 5637 5636 5634
5631 5632 5633 5634 5636 5637 5639 5639 5641 5642 5643 5644 5644 5645 5645 5646 5647 5648 5648 5648 5649 5649 5649 5650 5650 5650 5649 5648 5647 5646 5644 5642 5641 5639 5638 5636 5635 5634 5632 5631 5629 5628 5627
5624 5625 5625 5627 5628 5629 5631 5631 5632 5632 5633 5634 5634 5635 5636 5637 5638 5639 5640 5640 5641 5641 5641 5642 5642 5642 5642 5642 5641 5639 5638 5635 5634 5633 5631 5629 5628 5627 5625 5624 5622 5621 5619
5617 5617 5618 5619 5621 5621 5622 5623 5623 5624 5623 5624 5624 5625 5626 5628 5629 5630 5631 5632 5632 5633 5633 5633 5633 5634 5634 5634 5634 5632 5631 5629 5627 5625 5624 5622 5620 5619 5618 5616 5615 5613 5612
5608 5609 5610 5611 5612 5612 5612 5613 5613 5614 5614 5614 5614 5614 5615 5617 5619 5620 5621 5622 5623 5623 5624 5624 5624 5625 5625 5626 5625 5625 5623 5621 5620 5618 5616 5614 5612 5611 5610 5609 5607 5605 5604
5600 5601 5601 5602 5603 5603 5603 5604 5604 5604 5604 5604 5603 5602 5604 5606 5608 5609 5610 5611 5612 5613 5614 5614 5615 5615 5616 5616 5617 5616 5615 5614 5612 5611 5609 5607 5605 5604 5602 5601 5599 5597 5596
5590 5591 5592 5592 5593 5594 5594 5595 5595 5594 5594 5595 5594 5592 5591 5592 5595 5598 5598 5600 5601 5602 5603 5604 5605 5606 5606 5607 5607 5607 5607 5606 5605 5603 5601 5600 5597 5596 5594 5593 5591 5589 5587
5581 5582 5583 5584 5584 5585 5585 5586 5587 5586 5585 5585 5586 5586 5583 5583 5583 5585 5587 5589 5590 5592 5593 5594 5595 5596 5596 5597 5597 5597 5597 5597 5596 5595 5593 5592 5589 5588 5586 5585 5583 5581 5579
5572 5573 5574 5575 5576 5577 5577 5577 5578 5578 5577 5576 5577 5578 5579 5579 5575 5573 5576 5578 5580 5581 5582 5583 5584 5585 5586 5586 5587 5587 5587 5587 5587 5586 5585 5583 5581 5579 5578 5576 5574 5572 5570
5564 5565 5566 5567 5567 5568 5568 5568 5569 5569 5569 5569 5568 5568 5569 5570 5569 5566 5564 5566 5568 5570 5572 5573 5574 5574 5575 5576 5576 5577 5577 5577 5576 5576 5575 5574 5572 5570 5569 5567 5564 5562 5560
5555 5557 5558 5559 5559 5559 5559 5559 5559 5560 5560 5560 5560 5560 5560 5560 5560 5559 5557 5555 5556 5558 5560 5562 5563 5564 5564 5565 5566 5566 5566 5566 5566 5566 5565 5564 5562 5560 5559 5557 5555 5552 5551
5547 5548 5550 5550 5550 5550 5550 5550 5551 5551 5551 5551 5551 5551 5552 5552 5553 5552 5550 5547 5547 5547 5549 5551 5553 5554 5555 5555 5556 5556 5556 5556 5555 5555 5555 5554 5552 5550 5549 5546 5544 5542 5540
5539 5540 5541 5542 5542 5541 5541 5541 5542 5542 5542 5542 5542 5542 5542 5543 5543 5543 5542 5539 5536 5536 5538 5541 5543 5544 5545 5545 5545 5545 5545 5545 5545 5545 5544 5542 5541 5539 5538 5536 5534 5532 5530
5532 5532 5533 5533 5533 5533 5533 5533 5532 5533 5533 5532 5532 5532 5533 5533 5533 5533 5533 5532 5530 5528 5529 5531 5531 5534 5534 5534 5534 5534 5534 5534 5534 5533 5532 5532 5530 5528 5527 5525 5523 5521 5519
5523 5524 5524 5524 5524 5524 5524 5524 5523 5523 5523 5523 5523 5522 5522 5522 5522 5523 5523 5523 5524 5523 5522 5522 5522 5523 5523 5523 5523 5523 5523 5523 5523 5522 5521 5520 5519 5518 5516 5514 5512 5511 5509
5515 5515 5515 5515 5515 5515 5515 5515 5515 5514 5514 5514 5514 5513 5513 5513 5512 5512 5512 5513 5513 5513 5512 5511 5511 5511 5512 5512 5511 5511 5511 5512 5512 5511 5511 5509 5508 5507 5505 5504 5502 5500 5498
5506 5506 5506 5506 5506 5506 5506 5505 5505 5505 5505 5504 5504 5504 5503 5503 5502 5502 5502 5502 5502 5502 5501 5499 5498 5498 5499 5500 5500 5499 5500 5500 5500 5500 5500 5499 5498 5497 5495 5493 5491 5490 5488
5498 5498 5497 5497 5496 5496 5496 5496 5495 5495 5495 5495 5495 5495 5494 5494 5493 5492 5492 5491 5491 5491 5490 5489 5487 5486 5487 5487 5487 5487 5487 5488 5488 5488 5488 5488 5487 5486 5484 5482 5480 5479 5477
5488 5487 5487 5487 5486 5486 5485 5486 5485 5485 5485 5485 5486 5485 5485 5484 5484 5483 5482 5481 5480 5479 5478 5477 5476 5475 5475 5475 5474 5474 5474 5475 5476 5476 5476 5476 5475 5474 5473 5471 5469 5467 5465
5477 5477 5477 5476 5476 5476 5476 5475 5475 5475 5475 5475 5475 5475 5475 5475 5474 5473 5473 5471 5470 5468 5466 5465 5464 5463 5463 5462 5462 5462 5461 5462 5463 5463 5464 5464 5463 5462 5460 5458 5456 5454 5453
5466 5466 5466 5466 5466 5466 5466 5465 5465 5464 5465 5465 5465 5464 5464 5464 5464 5463 5462 5461 5460 5458 5456 5455 5454 5453 5453 5452 5451 5450 5448 5447 5449 5452 5450 5451 5450 5449 5448 5446 5443 5441 5439
5456 5455 5455 5455 5455 5455 5455 5455 5454 5454 5454 5454 5454 5453 5453 5454 5453 5452 5452 5451 5449 5449 5448 5447 5445 5444 5443 5442 5440 5438 5436 5435 5437 5439 5436 5437 5436 5435 5435 5433 5431 5429 5427
5445 5444 5444 5444 5444 5445 5445 5445 5444 5444 5443 5443 5443 5443 5442 5442 5442 5441 5440 5438 5437 5437 5437 5436 5435 5435 5433 5431 5429 5428 5425 5423 5424 5424 5423 5422 5423 5422 5422 5421 5418 5416 5415
5435 5434 5434 5434 5433 5434 5434 5434 5434 5432 5432 5432 5432 5432 5431 5431 5431 5430 5428 5426 5425 5425 5424 5424 5424 5423 5422 5420 5417 5414 5411 5409 5409 5411 5410 5409 5410 5408 5409 5409 5407 5404 5402
5424 5424 5424 5423 5423 5423 5423 5423 5423 5422 5421 5421 5421 5420 5420 5420 5419 5418 5417 5415 5414 5413 5412 5411 5411 5410 5409 5407 5405 5404 5401 5398 5397 5398 5399 5396 5396 5393 5393 5396 5394 5391 5389